Location: Acheville
(50.3840°N, 2.8827°E)
Time: 10:54:45
(UTC+00:00)

PAYLOAD B - Pass Details

Date: 24 October 2021
Orbit: 849 x 871 km, 99.1° (Epoch: 01 December)

Event Time Altitude Azimuth Distance (km) Brightness Sun altitude
Rises 17:04:30 0° 154° (SSE) 3,417 7.2 -4.8°
Reaches altitude 10° 17:06:51 10° 151° (SSE) 2,488 6.5 -5.2°
Maximum altitude 17:12:20 69° 70° (ENE) 925 4.2 -6.0°
Drops below altitude 10° 17:17:54 10° 348° (NNW) 2,520 6.7 -6.9°
Sets 17:20:18 0° 346° (NNW) 3,464 7.4 -7.3°
